TimeCST,TemperatureF,Dew PointF,Humidity,Sea Level PressureIn,VisibilityMPH,Wind Direction,Wind SpeedMPH,Gust SpeedMPH,PrecipitationIn,Events,Conditions,WindDirDegrees,DateUTC
12:52 AM,30.0,28.9,96,29.93,5.0,Calm,Calm,-,N/A,,Clear,0,2013-03-03 06:52:00
1:52 AM,32.0,28.9,88,29.90,8.0,Calm,Calm,-,N/A,,Clear,0,2013-03-03 07:52:00
2:52 AM,30.0,28.0,92,29.87,8.0,NE,3.5,-,N/A,,Clear,40,2013-03-03 08:52:00
3:52 AM,30.0,28.9,96,29.83,8.0,Calm,Calm,-,N/A,,Clear,0,2013-03-03 09:52:00
4:52 AM,30.9,28.9,92,29.81,8.0,ENE,3.5,-,N/A,,Clear,70,2013-03-03 10:52:00
5:52 AM,30.2,28.4,93,29.72,7.0,NE,4.6,-,N/A,,Clear,50,2013-03-03 11:52:00
6:52 AM,28.9,28.0,96,29.78,6.0,ENE,4.6,-,N/A,,Clear,60,2013-03-03 12:52:00
7:52 AM,28.4,28.4,100,29.69,4.0,ENE,3.5,-,N/A,,Clear,70,2013-03-03 13:52:00
8:52 AM,28.9,28.9,100,29.76,4.0,ENE,5.8,-,N/A,,Scattered Clouds,70,2013-03-03 14:52:00
9:16 AM,30.2,28.4,93,29.67,4.0,Calm,Calm,-,N/A,,Mostly Cloudy,0,2013-03-03 15:16:00
9:45 AM,30.2,28.4,93,29.67,4.0,East,5.8,-,N/A,,Overcast,90,2013-03-03 15:45:00
9:52 AM,30.9,28.9,92,29.74,4.0,East,5.8,-,N/A,,Overcast,90,2013-03-03 15:52:00
10:23 AM,32.0,30.2,93,29.66,5.0,East,5.8,-,N/A,,Mostly Cloudy,80,2013-03-03 16:23:00
10:52 AM,32.0,30.0,92,29.72,5.0,ESE,5.8,-,N/A,,Scattered Clouds,120,2013-03-03 16:52:00
11:52 AM,33.1,30.9,92,29.70,6.0,ESE,5.8,-,N/A,,Overcast,120,2013-03-03 17:52:00
12:52 PM,34.0,30.9,89,29.68,6.0,ESE,4.6,-,N/A,,Overcast,120,2013-03-03 18:52:00
1:52 PM,34.0,30.9,89,29.66,6.0,East,6.9,-,N/A,,Overcast,80,2013-03-03 19:52:00
2:52 PM,35.1,33.1,92,29.64,5.0,East,8.1,-,0.01,Rain,Light Rain,90,2013-03-03 20:52:00
3:52 PM,35.1,33.1,92,29.63,5.0,East,6.9,-,0.00,,Overcast,100,2013-03-03 21:52:00
4:52 PM,35.1,33.1,92,29.62,7.0,ESE,6.9,-,N/A,,Overcast,110,2013-03-03 22:52:00
5:42 PM,33.8,33.8,100,29.56,7.0,ESE,4.6,-,N/A,,Overcast,120,2013-03-03 23:42:00
5:52 PM,34.0,32.0,92,29.63,7.0,ESE,6.9,-,N/A,,Overcast,110,2013-03-03 23:52:00
6:03 PM,33.8,32.0,93,29.56,7.0,East,4.6,-,N/A,,Overcast,100,2013-03-04 00:03:00
6:52 PM,33.1,32.0,96,29.64,7.0,East,8.1,-,N/A,,Overcast,80,2013-03-04 00:52:00
7:52 PM,32.0,30.9,96,29.67,8.0,ENE,3.5,-,N/A,,Overcast,60,2013-03-04 01:52:00
8:52 PM,30.9,30.0,96,29.66,7.0,NE,8.1,-,0.00,Snow,Light Snow,50,2013-03-04 02:52:00
9:52 PM,28.9,28.0,96,29.66,4.0,NE,9.2,-,0.01,Snow,Light Snow,50,2013-03-04 03:52:00
10:30 PM,28.4,26.6,93,29.59,2.5,NE,11.5,-,0.01,Snow,Light Snow,40,2013-03-04 04:30:00
10:41 PM,28.4,26.6,93,29.59,1.5,NE,10.4,-,0.01,Snow,Light Snow,40,2013-03-04 04:41:00
10:52 PM,27.0,26.1,96,29.66,1.0,NE,11.5,-,0.02,Snow,Light Snow,40,2013-03-04 04:52:00
11:07 PM,26.6,26.6,100,29.60,0.8,NE,8.1,-,0.01,Snow,Light Snow,40,2013-03-04 05:07:00
11:42 PM,26.6,24.8,93,29.61,0.2,NE,6.9,-,0.08,Fog-Snow,Heavy Snow,40,2013-03-04 05:42:00
11:52 PM,25.0,25.0,100,29.68,0.2,NE,6.9,-,0.10,Fog-Snow,Heavy Snow,50,2013-03-04 05:52:00